STARLINK-1450 (45667 NORAD) Tracking and Keplerian Element Data

This shows tracking and keplerian element data for the satellite.

Feedback or suggestion? Click here.




ElementValue
Catalog45667
NameSTARLINK-1450
Epoch Orbit1064
Epoch Day218.91667824
Epoch Year2020
RAAN232.4827
Inclination52.9993
Eccentricity0.0001403
Argument of Perigee71.8087
Mean Anonmoly298.7541
Mean Motion15.05548581
Decay Rate0.00044821
L11 45667U 20035L 20218.91667824 .00044821 00000-0 30784-2 0 9997
L22 45667 52.9993 232.4827 0001403 71.8087 298.7541 15.05548581 10643

Live tracking and technical data element details for STARLINK-1450 (NORAD 45667). STARLINK-1450 can be tracked NOW for your location showing map with azimuth and elevation plus other details from your city location.

Track the satellite on the map from your city or location and see movement details for azimuth, elevation, latitude, longitude, range, height, and movement on the map or in text.







IsCatalogInMostPopularTable: catalog: 45667, numindb: 9
Update: records affected: 1



GetName: 45667 STARLINK-1450

Hit Count: updated at: Sat, 08 Aug 2020 00:08:23 GMT